Regional Weather Roundup
Issued by NWS

Home | Current Version | Previous Version | Text Only | Print | Product List | Glossary On
Versions: 1 2 3 4 5 6 7 8 9 10 11 12 13 14 15 16 17 18 19 20 21 22 23 24 25 26 27 28 29 30 31 32 33 34 35 36 37
000
ASUS46 KPQR 231810
RWROR

OREGON REGIONAL WEATHER ROUNDUP
NATIONAL WEATHER SERVICE PORTLAND OR
1100 AM PDT THU OCT 23 2014

NOTE: "FAIR" INDICATES FEW OR NO CLOUDS BELOW 12,000 FEET WITH
NO SIGNIFICANT WEATHER AND/OR OBSTRUCTIONS TO VISIBILITY.

ORZ001>013-231900-
NORTHWEST OREGON


CITY           SKY/WX    TMP DP  RH WIND       PRES   REMARKS
ASTORIA        MOSUNNY   58  51  78 S9        29.81R
6HR MIN TEMP:  51; 6HR MAX TEMP:  58; 6HR PCP:  0.11;

NEWPORT        CLOUDY    59  55  88 S13       29.91R FOG
PORTLAND       CLOUDY    57  55  93 SE8       29.87R
6HR MIN TEMP:  54; 6HR MAX TEMP:  57; 6HR PCP:  0.19;

VANCOUVER WA   CLOUDY    57  53  86 E7        29.86R
6HR MIN TEMP:  54; 6HR MAX TEMP:  58; 6HR PCP:  0.18;

SCAPPOOSE      CLOUDY    57  53  86 S7        29.85R
6HR MIN TEMP:  54; 6HR MAX TEMP:  57; 6HR PCP:  0.12;

HILLSBORO      CLOUDY    56  54  93 S7        29.85R
6HR MIN TEMP:  53; 6HR MAX TEMP:  56; 6HR PCP:  0.11;

AURORA         CLOUDY    57  54  89 S10       29.88R
6HR MIN TEMP:  53; 6HR MAX TEMP:  57; 6HR PCP:  0.10;

MCMINNVILLE    CLOUDY    58  53  84 S6        29.87R
6HR MIN TEMP:  54; 6HR MAX TEMP:  58; 6HR PCP:  0.08;

SALEM          CLOUDY    58  54  86 S13       29.87R
6HR MIN TEMP:  56; 6HR MAX TEMP:  58; 6HR PCP:  0.30;

CORVALLIS      CLOUDY    57  54  88 S12       29.91R
EUGENE         CLOUDY    56  52  86 S10       29.92R
6HR MIN TEMP:  55; 6HR MAX TEMP:  58; 6HR PCP:  0.09;

$$

ORZ021-028-231900-
SOUTHWEST OREGON


CITY           SKY/WX    TMP DP  RH WIND       PRES   REMARKS
NORTH BEND     CLOUDY    61  61 100 S7        29.93R
6HR MIN TEMP:  55; 6HR MAX TEMP:  61; 6HR PCP:  0.09;

BROOKINGS      CLOUDY    57  57 100 CALM      29.98R
ROSEBURG       CLOUDY    60  52  74 SE3       29.93R
6HR MIN TEMP:  58; 6HR MAX TEMP:  60; 6HR PCP:  0.04;

SEXTON SUMMIT  FOG       47  47 100 NW3       29.96R VSB 1/4
6HR MIN TEMP:  47; 6HR MAX TEMP:  49; 6HR PCP:  0.50;

MEDFORD        HVY RAIN  56  55  97 S5        29.95R FOG
6HR MIN TEMP:  56; 6HR MAX TEMP:  57; 6HR PCP:  0.15;

$$

ORZ009-041-231900-
COLUMBIA GORGE


CITY           SKY/WX    TMP DP  RH WIND       PRES   REMARKS
TROUTDALE      CLOUDY    58  53  84 SW7       29.86R
6HR MIN TEMP:  54; 6HR MAX TEMP:  58; 6HR PCP:  0.15;

THE DALLES     CLOUDY    56  52  86 CALM      29.84R
6HR MIN TEMP:  52; 6HR MAX TEMP:  56; 6HR PCP:  0.10;

$$

ORZ029>031-042>050-061>064-231900-
EASTERN OREGON


CITY           SKY/WX    TMP DP  RH WIND       PRES   REMARKS
REDMOND        CLOUDY    53  48  83 W9        29.90R
6HR MIN TEMP:  50; 6HR MAX TEMP:  54; 6HR PCP:  0.08;

BEND           LGT RAIN  50  46  87 SW16      29.91R
KLAMATH FALLS  LGT RAIN  49  45  86 S16       30.00F
6HR MIN TEMP:  48; 6HR MAX TEMP:  50; 6HR PCP:  0.14;

LAKEVIEW       CLOUDY    48  45  87 S14       30.08S
HERMISTON      LGT RAIN  57  53  86 NW13      29.81R
6HR MIN TEMP:  54; 6HR MAX TEMP:  58; 6HR PCP:  0.03;

PENDLETON      LGT RAIN  57  53  86 S5        29.79S
6HR MIN TEMP:  51; 6HR MAX TEMP:  60; 6HR PCP:  0.01;

JOHN DAY       CLOUDY    57  43  60 S21G35    29.92R
MEACHAM        CLOUDY    57  42  57 CALM      29.86S
6HR MIN TEMP:  46; 6HR MAX TEMP:  57; 6HR PCP: TRACE;

LA GRANDE      CLOUDY    63  37  39 S16G28    29.85F
6HR MIN TEMP:  55; 6HR MAX TEMP:  63;

BAKER CITY     LGT RAIN  54  43  66 E22       29.94F
6HR MIN TEMP:  53; 6HR MAX TEMP:  55; 6HR PCP: TRACE;

BURNS          LGT RAIN  51  45  79 SE7       30.01F
6HR MIN TEMP:  47; 6HR MAX TEMP:  52; 6HR PCP:  0.29;

ROME             N/A     58  38  47 S14G29    30.03F
6HR MIN TEMP:  50; 6HR MAX TEMP:  58; 6HR PCP:  0.02;

ONTARIO        LGT RAIN  56  47  71 SE5       30.05R
6HR MIN TEMP:  50; 6HR MAX TEMP:  57; 6HR PCP:  0.01;

$$



USA.gov is the U.S. government's official web portal to all federal, state and local government web resources and services.